Weather History for Concord, NH

Change the Weather History Date:

Thursday, September 5, 2013

  Actual Average Record
Temperature  
Mean Temperature 57 °F 64 °F  
Max Temperature 71 °F 77 °F 91 °F (1953)
Min Temperature 42 °F 52 °F 33 °F (1896)
Degree Days  
Heating Degree Days 8 3  
Month to date heating degree days 8 14  
Since 1 July heating degree days 38 62  
Cooling Degree Days 0 2  
Month to date cooling degree days 22 13  
Year to date cooling degree days 513 426  
Growing Degree Days 8 (Base 50)    
Moisture  
Dew Point 48 °F    
Average Humidity 65    
Maximum Humidity 100    
Minimum Humidity 30    
Precipitation  
Precipitation T in 0.09 in 0.97 in (1944)
Month to date precipitation 2.59 0.49  
Year to date precipitation 30.88 26.76  
Snow  
Snow 0.00 in 0.00 in 0.00 in (2002)
Month to date snowfall 0.0 0.0  
Since 1 July snowfall 0.0 0.0  
Since 1 September snowfall 0.0 0.0  
Snow Depth 0.00 in    
Sea Level Pressure  
Sea Level Pressure 29.99 in    
Wind  
Wind Speed 6 mph (NNW)    
Max Wind Speed 16 mph    
Max Gust Speed 22 mph    
Visibility 10 miles    
Events Rain    
T = Trace of Precipitation, MM = Missing Value Source: NWS Daily Summary

Daily Weather History Graph

Daily Weather History Graph

Search for Another Location

Airport:

Trip Planner

Search our weather history database for the weather conditions in past years. The results will help you decide how hot, cold, wet, or windy it might be!

Date:

Astronomy

Sep. 05, 2013 Rise Set
Actual Time 6:14 AM EDT 7:13 PM EDT
Civil Twilight 5:45 AM EDT 7:42 PM EDT
Nautical Twilight 5:11 AM EDT 8:17 PM EDT
Astronomical Twilight 4:34 AM EDT 8:53 PM EDT
Moon 6:25 AM EDT (9/5) 7:01 PM EDT (9/5)
Length of Visible Light 13h 56m
Length of Day
12h 58m
New Moon, 0% of the Moon is Illuminated
Sep 5
New Moon
Sep 12
First Quarter
Sep 19
Full
Sep 26
Last Quarter
Oct 4
New

Hourly Weather History & Observations

Time (EDT) Temp. Dew Point Humidity Pressure Visibility Wind Dir Wind Speed Gust Speed Precip Events Conditions
12:51 AM 55.9 °F 55.0 °F 97% 29.88 in 10.0 mi Calm Calm - N/A   Clear
1:51 AM 57.0 °F 55.0 °F 93% 29.87 in 10.0 mi Calm Calm - N/A   Overcast
2:51 AM 57.9 °F 55.9 °F 93% 29.88 in 10.0 mi Calm Calm - N/A   Overcast
3:51 AM 57.9 °F 57.0 °F 97% 29.86 in 10.0 mi Calm Calm - 0.00 in Rain Light Rain
4:51 AM 59.0 °F 57.0 °F 93% 29.87 in 10.0 mi Calm Calm - 0.00 in   Mostly Cloudy
5:51 AM 57.0 °F 57.0 °F 100% 29.89 in 10.0 mi ENE 3.5 mph - N/A   Scattered Clouds
6:51 AM 57.9 °F 57.0 °F 97% 29.91 in 10.0 mi NW 3.5 mph - N/A   Mostly Cloudy
7:33 AM 59.0 °F 57.2 °F 94% 29.93 in 10.0 mi NNW 6.9 mph - N/A   Mostly Cloudy
7:51 AM 60.1 °F 57.0 °F 90% 29.94 in 10.0 mi NNW 6.9 mph - N/A   Overcast
8:51 AM 60.1 °F 55.0 °F 83% 29.97 in 10.0 mi NNW 10.4 mph - N/A   Overcast
9:51 AM 61.0 °F 54.0 °F 78% 29.98 in 10.0 mi NW 9.2 mph - N/A   Scattered Clouds
10:51 AM 62.1 °F 48.0 °F 60% 30.00 in 10.0 mi NW 9.2 mph - N/A   Clear
11:51 AM 64.0 °F 42.1 °F 45% 30.00 in 10.0 mi NW 9.2 mph - N/A   Clear
12:51 PM 64.9 °F 42.1 °F 43% 30.00 in 10.0 mi Variable 4.6 mph - N/A   Clear
1:51 PM 69.1 °F 41.0 °F 36% 29.99 in 10.0 mi Variable 4.6 mph - N/A   Clear
2:51 PM 70.0 °F 39.0 °F 32% 29.99 in 10.0 mi NW 12.7 mph 17.3 mph N/A   Partly Cloudy
3:51 PM 69.1 °F 37.0 °F 31% 30.01 in 10.0 mi WNW 10.4 mph - N/A   Scattered Clouds
4:51 PM 68.0 °F 36.0 °F 31% 30.02 in 10.0 mi NW 12.7 mph - N/A   Clear
5:51 PM 64.9 °F 37.0 °F 36% 30.04 in 10.0 mi NW 10.4 mph - N/A   Partly Cloudy
6:51 PM 61.0 °F 39.9 °F 46% 30.06 in 10.0 mi NNW 5.8 mph - N/A   Clear
7:51 PM 55.9 °F 43.0 °F 62% 30.08 in 10.0 mi NNW 3.5 mph - N/A   Clear
8:51 PM 53.1 °F 42.1 °F 66% 30.11 in 10.0 mi NNW 4.6 mph - N/A   Clear
9:51 PM 50.0 °F 45.0 °F 83% 30.14 in 10.0 mi Calm Calm - N/A   Clear
10:51 PM 46.9 °F 44.1 °F 90% 30.16 in 10.0 mi NNW 4.6 mph - N/A   Clear
11:51 PM 44.1 °F 43.0 °F 96% 30.17 in 10.0 mi Calm Calm - N/A   Clear